GAOFEN-8

Last updated on Thu Oct 16 2025 00:02:30 GMT+0000 (Coordinated Universal Time)

1 40701U 15030A 25288.63732853 .00017510 00000+0 50355-3 0 9997 2 40701 97.6945 104.0677 0011106 353.6047 6.5052 15.35807432573782
UTC large
Height (km)
Speed (km/s)
/
Latitude / Longitude
Inclination (degrees)
Orbital Period (minutes)
Azimuth
Elevation
Range (km)
Doppler Factor

Next 0 passes for location: London (51.5072 / 0.1276)

Sorry there are no passes over London.